{"data":{"norad_id":59172,"intl_designator":"2024-044W","name":"STARLINK-31348","alt_names":[],"object_type":"PAYLOAD","status":"ACTIVE","operator":null,"country":"US","launch_date":"2024-03-04","launch_site_code":"AFETR","launch_vehicle":null,"mission":null,"orbit_class":"UNKNOWN","rcs_meters":null,"size_class":null,"mass_kg":null,"dimensions":null,"purposes":["comms"],"wikipedia_slug":null,"has_3d_model":false,"image_url":null,"decayed_at":null,"tle_current":{"epoch":"2026-05-24T20:15:28.257120Z","epoch_age_seconds":102724,"freshness":"FRESH","line1":"1 59172U 24044W   26144.84407705  .00023649  00000+0  86580-3 0  9993","line2":"2 59172  43.0005 350.1291 0001583 268.9947  91.0723 15.27592496125753","mean_motion":15.27592496,"eccentricity":0.0001583,"inclination_deg":43.0005,"raan_deg":350.1291,"arg_perigee_deg":268.9947,"mean_anomaly_deg":91.0723,"bstar":0.0008658,"rev_number":12575,"period_min":94.265977593543,"perigee_km":481.92555893946,"apogee_km":484.09779861116,"semimajor_km":6861.1486787753,"source":"CELESTRAK","updated_at":"2026-05-25T13:38:18.836886Z"}}}